STARLINK-1575, 46349

Orbit data source: Space-Track

STARLINK-1575, 46349 is a payload satellite owned by SpaceX/Seattle (US) in LEO that was launched on Thu, 03 Sep 2020 UTC via an FALCON 9 launch vehicle from the Air Force Eastern Test Range (AFETR). Payload-class satellites include a variety of spacecraft equipped with specific instruments for various scientific and technological missions. These include communications satellites like Starlink; space stations such as the ISS; scientific satellites like the Hubble; Earth observation satellites from companies like Planet Labs, Umbra, and HawkEye 360; GPS; miniature CubeSats for education and research; and military/defense satellites.

Loading next visibility...
Identifier
46349, 2020-062AA
Orbit
LEO
Last TLE update
13 hours ago
Origin
Manufacturer
SpaceX/Seattle
Mission
Partially operational Commercial Communications
Bus & Motor
STARLINK, Unknown motor
Mass
260 kg wet, ~248 kg dry
Launch date (UTC)
2020-09-03 (5 years ago)
Launch vehicle
FALCON 9
Launch site
Air Force Eastern Test Range (AFETR)
Object type
Payload
Rocket body
Debris
Shape & HBR
Box + 1 Pan, 4.4 m
Radar Cross Section
13.562 m², Large (>1 m²)

Expand to show TLE details & history

TLE from 13 hours ago
0 STARLINK-1575
1 46349U 20062AA  25199.46401458  .00022655  00000-0  92871-3 0  9994
2 46349  53.0507 301.0882 0001660  11.0748 349.0285 15.24196668269662
Epoch: 2025-07-18T11:08Z
TLE epoch observation values (Epoch: 2025-07-18T11:08:10.859Z)
Latitude
-0.00003°
Longitude
-162.47217°
Altitude
492.965 km
Speed
7.62 km/s
True Right ascension
20h 04m 21s
True Declination
0° 00' 00"
Sunlit
Object was in full shadow at epoch
Visualization orbit readout
Latitude
-4.50356°
Longitude
-168.26633°
Altitude
493.623 km
Speed
7.62 km/s
Apparent Right ascension
21h 37m 51s
Apparent Declination
-25° 42' 56"
Sunlit
Object is in full shadow
Visualization observer readout
Local Sidereal Time
12:29:44
Azimuth
81.643° E
Elevation
-51.632°
Doppler factor
1
Orbital elements
Apogee altitude
494.613 km
Perigee altitude
492.331 km
Semi-major axis
6,871.609 km
Eccentricity
0.00017
Inclination
53.0507°
RAAN
301.0882°
Arg. of periapsis
11.0748°
True anomaly
349.02488°
Mean anomaly
349.0285°
Eccentric anomaly
349.02669°
Mean motion
3.81027 °/min
Orbital period
94.48 mins
BSTAR
0.00092871
Loading maneuver chart data...
Loading SW <> Apogee altitude chart data...
Loading historical data...
Loading historical data...
Loading historical data...
Loading historical data...
Loading historical data...
Loading historical data...
Loading historical data...
|